Showing default

ES'HAIL 2, 43700

Orbit data source: Space-Track

ES'HAIL 2, 43700 is a payload satellite owned by Es'hailsat (QA) in GEO that was launched on Thu, 15 Nov 2018 UTC via an FALCON 9 launch vehicle from the Air Force Eastern Test Range (AFETR). Payload-class satellites include a variety of spacecraft equipped with specific instruments for various scientific and technological missions. These include communications satellites like Starlink; space stations such as the ISS; scientific satellites like the Hubble; Earth observation satellites from companies like Planet Labs, Umbra, and HawkEye 360; GPS; miniature CubeSats for education and research; and military/defense satellites.

Not visible in the next 10 days
Identifier
43700, 2018-090A
Orbit
GEO
Country
Flag of QAQA / QAT
Related business
Manufacturer
MELCO
Mission
Operational Commercial Communications
Bus & Motor
DS-2000, R-4D-11
Mass
~5,300 kg wet, ~2,000 kg dry
Launch date (UTC)
2018-11-15 (7 years ago)
Launch vehicle
FALCON 9
Launch site
Air Force Eastern Test Range (AFETR)
Object type
Payload
Rocket body
Debris
Shape & HBR
Box + 2 Pan, 12.7 m
Radar Cross Section
52.659 m²

Expand to show TLE details & history
Last TLE update: 9 hours ago

TLE from 9 hours ago
0 ES'HAIL 2
1 43700U 18090A   25295.48326351  .00000000  00000-0  00000+0 0  9996
2 43700   0.0133 224.7928 0001849  25.3785 340.7263  1.00271387 25291
Epoch: 2025-10-22T11:35Z
TLE epoch observation values (Epoch: 2025-10-22T11:35:53.967Z)
Latitude
0.00094°
Longitude
25.72691°
Altitude
35,778.822 km
Speed
3.075 km/s
True Right ascension
15h 23m 25s
True Declination
0° 00' 03"
Sunlit
Object was in daylight at epoch
Visualization orbit readout
Latitude
Unknown
Longitude
Unknown
Altitude
Unknown
Speed
Unknown
Apparent Right ascension
Unknown
Apparent Declination
Unknown
Sunlit
N/A
Visualization observer readout
Local Sidereal Time
15:45:12
Azimuth
Unknown
Elevation
Unknown
Doppler factor
Unknown
Orbital elements
Apogee altitude
35,795.573 km
Perigee altitude
35,779.98 km
Semi-major axis
42,165.914 km
Eccentricity
0.00018
Inclination
0.0133°
RAAN
224.7928°
Arg. of periapsis
25.3785°
True anomaly
340.7193°
Mean anomaly
340.7263°
Eccentric anomaly
340.7228°
Mean motion
0.25067 °/min
Orbital period
1,436.16 mins
BSTAR
0
Loading maneuver chart data...
Computing Atmospheric mass density...
Loading historical data...
Loading historical data...
Loading historical data...
Loading historical data...
Loading historical data...
Loading historical data...
Loading historical data...
Other satellites on launch #90 in the year 2018 (2018-11-15 UTC)

Documentation

Showing up to 5 results
|